Regional Weather Roundup
Issued by NWS Goodland, KS

Home | Current Version | Previous Version | Text Only | Print | Product List | Glossary Off
Versions: 1 2 3 4 5 6 7 8 9 10 11 12 13 14 15 16 17 18 19 20 21 22 23 24 25 26 27 28 29 30 31 32 33 34 35 36 37 38 39 40 41 42 43 44 45 46 47 48 49 50

000
ASUS43 KGLD 232159
RWRGLD

GOODLAND FORECAST AREA HOURLY WEATHER ROUNDUP
NATIONAL WEATHER SERVICE GOODLAND KS
400 PM MDT SAT JUL 23 2016

...OFFICIAL OBSERVATIONS...

CITY           SKY/WX    TMP DP  RH WIND       PRES   REMARKS
GOODLAND KS    SUNNY    101  50  18 NE13      29.93F
HILL CITY KS   SUNNY    102  64  28 NW9       29.80F HX 105
IMPERIAL NEB   SUNNY     98  58  26 N9        29.90F
MCCOOK NEB     CLOUDY    93  70  46 E9        29.85F
AKRON CO       SUNNY     95  43  16 N5        30.01F
BURLINGTON CO  SUNNY     99  45  15 NE12G17   29.98F
LIMON CO       SUNNY     95  37  13 CALM      30.06F
$$

...UNOFFICIAL OBSERVATIONS...

CITY           SKY/WX    TMP DP  RH WIND       PRES   REMARKS
COLBY KS       SUNNY    102  59  24 N14       29.90F HX 102
LENORA KS        N/A     98  32  10 MISG        N/A
NORTON KS      SUNNY     99  52  20 NW3       29.83S
$$




USA.gov is the U.S. government's official web portal to all federal, state and local government web resources and services.